Check out our new PWSWeather beta!
PWSweather.com
Personal Weather Stations
Station Observations

VeniceIT

Lat: 45.472055, Lon: 12.235221

Elevation: 0

Station Type: TP1080WC

http://meteomarghera.asdasd.it/

High Low Average
Temperature -5866.1°F-3276.7°C -5866.1°F-3276.7°C -5866.1°F-3276.7°C
Dew Point -- -- --
Winds 916.0 mph 1474.2 kmh 916.0 mph 1474.2 kmh 916.0 mph N1474.2 kmh N
Wind Gusts 916.0 mph1474.2 kmh 916.0 mph1474.2 kmh 916.0 mph1474.2 kmh
Humidity - - -
Pressure 29.88 in1011.9 mb 29.50 in999.0 mb -
Precipitation 0.00 in0.0 mm - -
Hour Temp Dew Point Humidity Winds Wind Gusts Pressure Precip Precip Rate Daily Precip Total
12:04 AM -5866.1°F-3276.7°C -- - 916.0 mph N1474.2 kmh N 916.0 mph1474.2 kmh 29.88 in1011.9 mb 0.00 in0.0 mm 0.00 in0.0 mm 0.00 in0.0 mm
12:33 AM -5866.1°F-3276.7°C -- - 916.0 mph N1474.2 kmh N 916.0 mph1474.2 kmh 29.87 in1011.5 mb 0.00 in0.0 mm 0.00 in0.0 mm 0.00 in0.0 mm
01:04 AM -5866.1°F-3276.7°C -- - 916.0 mph N1474.2 kmh N 916.0 mph1474.2 kmh 29.85 in1010.8 mb 0.00 in0.0 mm 0.00 in0.0 mm 0.00 in0.0 mm
01:33 AM -5866.1°F-3276.7°C -- - 916.0 mph N1474.2 kmh N 916.0 mph1474.2 kmh 29.84 in1010.5 mb 0.00 in0.0 mm 0.00 in0.0 mm 0.00 in0.0 mm
02:04 AM -5866.1°F-3276.7°C -- - 916.0 mph N1474.2 kmh N 916.0 mph1474.2 kmh 29.81 in1009.5 mb 0.00 in0.0 mm 0.00 in0.0 mm 0.00 in0.0 mm
02:33 AM -5866.1°F-3276.7°C -- - 916.0 mph N1474.2 kmh N 916.0 mph1474.2 kmh 29.79 in1008.8 mb 0.00 in0.0 mm 0.00 in0.0 mm 0.00 in0.0 mm
03:04 AM -5866.1°F-3276.7°C -- - 916.0 mph N1474.2 kmh N 916.0 mph1474.2 kmh 29.77 in1008.1 mb 0.00 in0.0 mm 0.00 in0.0 mm 0.00 in0.0 mm
03:33 AM -5866.1°F-3276.7°C -- - 916.0 mph N1474.2 kmh N 916.0 mph1474.2 kmh 29.74 in1007.1 mb 0.00 in0.0 mm 0.00 in0.0 mm 0.00 in0.0 mm
04:04 AM -5866.1°F-3276.7°C -- - 916.0 mph N1474.2 kmh N 916.0 mph1474.2 kmh 29.72 in1006.4 mb 0.00 in0.0 mm 0.00 in0.0 mm 0.00 in0.0 mm
04:33 AM -5866.1°F-3276.7°C -- - 916.0 mph N1474.2 kmh N 916.0 mph1474.2 kmh 29.69 in1005.4 mb 0.00 in0.0 mm 0.00 in0.0 mm 0.00 in0.0 mm
05:04 AM -5866.1°F-3276.7°C -- - 916.0 mph N1474.2 kmh N 916.0 mph1474.2 kmh 29.66 in1004.4 mb 0.00 in0.0 mm 0.00 in0.0 mm 0.00 in0.0 mm
05:33 AM -5866.1°F-3276.7°C -- - 916.0 mph N1474.2 kmh N 916.0 mph1474.2 kmh 29.64 in1003.7 mb 0.00 in0.0 mm 0.00 in0.0 mm 0.00 in0.0 mm
06:04 AM -5866.1°F-3276.7°C -- - 916.0 mph N1474.2 kmh N 916.0 mph1474.2 kmh 29.61 in1002.7 mb 0.00 in0.0 mm 0.00 in0.0 mm 0.00 in0.0 mm
06:33 AM -5866.1°F-3276.7°C -- - 916.0 mph N1474.2 kmh N 916.0 mph1474.2 kmh 29.58 in1001.7 mb 0.00 in0.0 mm 0.00 in0.0 mm 0.00 in0.0 mm
07:04 AM -5866.1°F-3276.7°C -- - 916.0 mph N1474.2 kmh N 916.0 mph1474.2 kmh 29.55 in1000.7 mb 0.00 in0.0 mm 0.00 in0.0 mm 0.00 in0.0 mm
07:33 AM -5866.1°F-3276.7°C -- - 916.0 mph N1474.2 kmh N 916.0 mph1474.2 kmh 29.55 in1000.7 mb 0.00 in0.0 mm 0.00 in0.0 mm 0.00 in0.0 mm
08:04 AM -5866.1°F-3276.7°C -- - 916.0 mph N1474.2 kmh N 916.0 mph1474.2 kmh 29.55 in1000.7 mb 0.00 in0.0 mm 0.00 in0.0 mm 0.00 in0.0 mm
08:33 AM -5866.1°F-3276.7°C -- - 916.0 mph N1474.2 kmh N 916.0 mph1474.2 kmh 29.51 in999.3 mb 0.00 in0.0 mm 0.00 in0.0 mm 0.00 in0.0 mm
09:04 AM -5866.1°F-3276.7°C -- - 916.0 mph N1474.2 kmh N 916.0 mph1474.2 kmh 29.54 in1000.3 mb 0.00 in0.0 mm 0.00 in0.0 mm 0.00 in0.0 mm
09:33 AM -5866.1°F-3276.7°C -- - 916.0 mph N1474.2 kmh N 916.0 mph1474.2 kmh 29.50 in999.0 mb 0.00 in0.0 mm 0.00 in0.0 mm 0.00 in0.0 mm
10:04 AM -5866.1°F-3276.7°C -- - 916.0 mph N1474.2 kmh N 916.0 mph1474.2 kmh 29.51 in999.3 mb 0.00 in0.0 mm 0.00 in0.0 mm 0.00 in0.0 mm
10:33 AM -5866.1°F-3276.7°C -- - 916.0 mph N1474.2 kmh N 916.0 mph1474.2 kmh 29.52 in999.7 mb 0.00 in0.0 mm 0.00 in0.0 mm 0.00 in0.0 mm
11:04 AM -5866.1°F-3276.7°C -- - 916.0 mph N1474.2 kmh N 916.0 mph1474.2 kmh 29.51 in999.3 mb 0.00 in0.0 mm 0.00 in0.0 mm 0.00 in0.0 mm
11:33 AM -5866.1°F-3276.7°C -- - 916.0 mph N1474.2 kmh N 916.0 mph1474.2 kmh 29.50 in999.0 mb 0.00 in0.0 mm 0.00 in0.0 mm 0.00 in0.0 mm
12:04 PM -5866.1°F-3276.7°C -- - 916.0 mph N1474.2 kmh N 916.0 mph1474.2 kmh 29.50 in999.0 mb 0.00 in0.0 mm 0.00 in0.0 mm 0.00 in0.0 mm
12:33 PM -5866.1°F-3276.7°C -- - 916.0 mph N1474.2 kmh N 916.0 mph1474.2 kmh 29.50 in999.0 mb 0.00 in0.0 mm 0.00 in0.0 mm 0.00 in0.0 mm
01:04 PM -5866.1°F-3276.7°C -- - 916.0 mph N1474.2 kmh N 916.0 mph1474.2 kmh 29.50 in999.0 mb 0.00 in0.0 mm 0.00 in0.0 mm 0.00 in0.0 mm
01:33 PM -5866.1°F-3276.7°C -- - 916.0 mph N1474.2 kmh N 916.0 mph1474.2 kmh 29.51 in999.3 mb 0.00 in0.0 mm 0.00 in0.0 mm 0.00 in0.0 mm
02:04 PM -5866.1°F-3276.7°C -- - 916.0 mph N1474.2 kmh N 916.0 mph1474.2 kmh 29.51 in999.3 mb 0.00 in0.0 mm 0.00 in0.0 mm 0.00 in0.0 mm
02:33 PM -5866.1°F-3276.7°C -- - 916.0 mph N1474.2 kmh N 916.0 mph1474.2 kmh 29.52 in999.7 mb 0.00 in0.0 mm 0.00 in0.0 mm 0.00 in0.0 mm
03:04 PM -5866.1°F-3276.7°C -- - 916.0 mph N1474.2 kmh N 916.0 mph1474.2 kmh 29.53 in1000.0 mb 0.00 in0.0 mm 0.00 in0.0 mm 0.00 in0.0 mm
03:33 PM -5866.1°F-3276.7°C -- - 916.0 mph N1474.2 kmh N 916.0 mph1474.2 kmh 29.55 in1000.7 mb 0.00 in0.0 mm 0.00 in0.0 mm 0.00 in0.0 mm
04:04 PM -5866.1°F-3276.7°C -- - 916.0 mph N1474.2 kmh N 916.0 mph1474.2 kmh 29.56 in1001.0 mb 0.00 in0.0 mm 0.00 in0.0 mm 0.00 in0.0 mm
04:33 PM -5866.1°F-3276.7°C -- - 916.0 mph N1474.2 kmh N 916.0 mph1474.2 kmh 29.59 in1002.0 mb 0.00 in0.0 mm 0.00 in0.0 mm 0.00 in0.0 mm
05:04 PM -5866.1°F-3276.7°C -- - 916.0 mph N1474.2 kmh N 916.0 mph1474.2 kmh 29.60 in1002.4 mb 0.00 in0.0 mm 0.00 in0.0 mm 0.00 in0.0 mm
05:33 PM -5866.1°F-3276.7°C -- - 916.0 mph N1474.2 kmh N 916.0 mph1474.2 kmh 29.62 in1003.0 mb 0.00 in0.0 mm 0.00 in0.0 mm 0.00 in0.0 mm
06:04 PM -5866.1°F-3276.7°C -- - 916.0 mph N1474.2 kmh N 916.0 mph1474.2 kmh 29.64 in1003.7 mb 0.00 in0.0 mm 0.00 in0.0 mm 0.00 in0.0 mm
06:33 PM -5866.1°F-3276.7°C -- - 916.0 mph N1474.2 kmh N 916.0 mph1474.2 kmh 29.66 in1004.4 mb 0.00 in0.0 mm 0.00 in0.0 mm 0.00 in0.0 mm
07:04 PM -5866.1°F-3276.7°C -- - 916.0 mph N1474.2 kmh N 916.0 mph1474.2 kmh 29.68 in1005.1 mb 0.00 in0.0 mm 0.00 in0.0 mm 0.00 in0.0 mm
07:33 PM -5866.1°F-3276.7°C -- - 916.0 mph N1474.2 kmh N 916.0 mph1474.2 kmh 29.70 in1005.8 mb 0.00 in0.0 mm 0.00 in0.0 mm 0.00 in0.0 mm
08:04 PM -5866.1°F-3276.7°C -- - 916.0 mph N1474.2 kmh N 916.0 mph1474.2 kmh 29.71 in1006.1 mb 0.00 in0.0 mm 0.00 in0.0 mm 0.00 in0.0 mm
08:33 PM -5866.1°F-3276.7°C -- - 916.0 mph N1474.2 kmh N 916.0 mph1474.2 kmh 29.73 in1006.8 mb 0.00 in0.0 mm 0.00 in0.0 mm 0.00 in0.0 mm
09:04 PM -5866.1°F-3276.7°C -- - 916.0 mph N1474.2 kmh N 916.0 mph1474.2 kmh 29.75 in1007.5 mb 0.00 in0.0 mm 0.00 in0.0 mm 0.00 in0.0 mm
09:33 PM -5866.1°F-3276.7°C -- - 916.0 mph N1474.2 kmh N 916.0 mph1474.2 kmh 29.75 in1007.5 mb 0.00 in0.0 mm 0.00 in0.0 mm 0.00 in0.0 mm
10:04 PM -5866.1°F-3276.7°C -- - 916.0 mph N1474.2 kmh N 916.0 mph1474.2 kmh 29.77 in1008.1 mb 0.00 in0.0 mm 0.00 in0.0 mm 0.00 in0.0 mm
10:33 PM -5866.1°F-3276.7°C -- - 916.0 mph N1474.2 kmh N 916.0 mph1474.2 kmh 29.77 in1008.1 mb 0.00 in0.0 mm 0.00 in0.0 mm 0.00 in0.0 mm
11:04 PM -5866.1°F-3276.7°C -- - 916.0 mph N1474.2 kmh N 916.0 mph1474.2 kmh 29.78 in1008.5 mb 0.00 in0.0 mm 0.00 in0.0 mm 0.00 in0.0 mm
11:33 PM -5866.1°F-3276.7°C -- - 916.0 mph N1474.2 kmh N 916.0 mph1474.2 kmh 29.79 in1008.8 mb 0.00 in0.0 mm 0.00 in0.0 mm 0.00 in0.0 mm